North Bennington, VT

3:24 AM EST on February 24, 2017 (GMT -0500)
Morse State

Weather History for KDDH - September, 2012

Change the Weather History Date:

Wednesday, September 26, 2012

  Actual Average Record
Temperature  
Mean Temperature 62 °F 55 °F  
Max Temperature 68 °F 67 °F 86 °F (2007)
Min Temperature 56 °F 44 °F 31 °F (2016)
Degree Days  
Heating Degree Days 3 10  
Month to date heating degree days 146 160  
Since 1 July heating degree days 169 232  
Cooling Degree Days 0 0  
Month to date cooling degree days 35 22  
Year to date cooling degree days 474 310  
Growing Degree Days 10 (Base 50)    
Moisture  
Dew Point 56 °F    
Average Humidity 77    
Maximum Humidity 97    
Minimum Humidity 56    
Precipitation  
Precipitation 0.07 in 0.14 in 0.73 in (2005)
Month to date precipitation 3.84 3.03  
Year to date precipitation 23.80 30.57  
Sea Level Pressure  
Sea Level Pressure 30.02 in    
Wind  
Wind Speed 4 mph (SSW)    
Max Wind Speed 16 mph    
Max Gust Speed 24 mph    
Visibility 10 miles    
Events Rain    
T = Trace of Precipitation, MM = Missing Value Source: NWS Daily Summary

Daily Weather History Graph

Daily Weather History Graph

Search for Another Location

Airport or City:

Trip Planner

Search our weather history database for the weather conditions in past years. The results will help you decide how hot, cold, wet, or windy it might be!

Date:

Astronomy

Sep. 26, 2012 Rise Set
Actual Time 6:45 AM EDT 6:42 PM EDT
Civil Twilight 6:16 AM EDT 7:10 PM EDT
Nautical Twilight 5:43 AM EDT 7:43 PM EDT
Astronomical Twilight 5:10 AM EDT 8:16 PM EDT
Moon 4:43 PM EDT (9/26) 3:03 AM EDT (9/26)
Length of Visible Light 12h 53m
Length of Day
11h 57m
Waxing Gibbous, 88% of the Moon is Illuminated
Sep 26
Waxing Gibbous
Sep 29
Full
Oct 8
Last Quarter
Oct 15
New
Oct 21
First Quarter

Hourly Weather History & Observations

Time (EDT) Temp. Dew Point Humidity Pressure Visibility Wind Dir Wind Speed Gust Speed Precip Events Conditions
1:54 AM 63.0 °F 46.9 °F 56% 30.06 in 10.0 mi Variable 5.8 mph 19.6 mph N/A   Scattered Clouds
2:54 AM 62.1 °F 48.9 °F 62% 30.05 in 10.0 mi Variable 5.8 mph 17.3 mph N/A   Overcast
3:54 AM 61.0 °F 52.0 °F 72% 30.05 in 10.0 mi SSW 9.2 mph 20.7 mph 0.00 in Rain Light Rain
4:54 AM 59.0 °F 53.1 °F 81% 30.04 in 10.0 mi South 6.9 mph - 0.01 in Rain Light Rain
5:54 AM 57.0 °F 53.1 °F 87% 30.04 in 10.0 mi ESE 3.5 mph - 0.01 in   Overcast
6:52 AM 55.4 °F 53.6 °F 94% 30.05 in 10.0 mi Calm Calm - 0.00 in   Overcast
6:54 AM 55.9 °F 53.1 °F 90% 30.05 in 10.0 mi Calm Calm - 0.00 in   Overcast
8:27 AM 57.2 °F 55.4 °F 94% 30.04 in 10.0 mi SSW 3.5 mph - 0.00 in Rain Light Rain
8:54 AM 60.1 °F 55.0 °F 83% 30.03 in 10.0 mi Variable 3.5 mph - 0.00 in   Overcast
9:54 AM 61.0 °F 55.0 °F 81% 30.04 in 10.0 mi Variable 3.5 mph - N/A   Overcast
10:54 AM 62.1 °F 55.0 °F 78% 30.04 in 10.0 mi SSW 5.8 mph - N/A   Overcast
11:54 AM 64.9 °F 55.9 °F 73% 30.03 in 10.0 mi South 3.5 mph - N/A   Overcast
12:02 PM 66.2 °F 57.2 °F 73% 30.03 in 10.0 mi Variable 4.6 mph - N/A   Overcast
12:40 PM 66.2 °F 57.2 °F 73% 30.02 in 10.0 mi WSW 5.8 mph - N/A   Mostly Cloudy
12:54 PM 66.9 °F 57.0 °F 70% 30.01 in 10.0 mi SSW 8.1 mph - N/A   Overcast
1:16 PM 66.2 °F 57.2 °F 73% 30.01 in 10.0 mi SSW 6.9 mph - N/A   Overcast
1:31 PM 66.2 °F 57.2 °F 73% 30.01 in 10.0 mi SSW 4.6 mph - N/A   Overcast
1:51 PM 66.2 °F 57.2 °F 73% 30.01 in 10.0 mi SSW 5.8 mph - N/A   Overcast
1:54 PM 66.9 °F 57.0 °F 70% 30.00 in 10.0 mi SSW 5.8 mph - N/A   Overcast
2:54 PM 66.9 °F 57.0 °F 70% 29.99 in 10.0 mi SW 6.9 mph - N/A   Overcast
3:04 PM 66.2 °F 57.2 °F 73% 30.00 in 10.0 mi SSW 5.8 mph - N/A   Overcast
3:54 PM 66.0 °F 57.9 °F 75% 29.99 in 10.0 mi WSW 4.6 mph - N/A   Overcast
4:54 PM 64.0 °F 57.0 °F 78% 30.00 in 10.0 mi SW 5.8 mph - N/A   Overcast
5:54 PM 63.0 °F 57.9 °F 84% 30.01 in 10.0 mi Variable 4.6 mph - N/A   Overcast
6:54 PM 63.0 °F 57.9 °F 84% 30.02 in 10.0 mi SSW 4.6 mph - N/A   Overcast
8:54 PM 63.0 °F 57.9 °F 84% 30.02 in 10.0 mi Calm Calm - N/A   Overcast
9:38 PM 60.8 °F 57.2 °F 88% 30.03 in 10.0 mi Calm Calm - N/A   Overcast
9:54 PM 61.0 °F 59.0 °F 93% 30.03 in 10.0 mi Calm Calm - N/A   Overcast
10:19 PM 60.8 °F 59.0 °F 94% 30.02 in 9.0 mi Calm Calm - N/A   Overcast
10:54 PM 61.0 °F 59.0 °F 93% 30.02 in 8.0 mi Calm Calm - 0.00 in Rain Light Rain
11:54 PM 63.0 °F 60.1 °F 90% 30.03 in 10.0 mi SW 4.6 mph - 0.02 in Rain Light Rain